{"data":{"norad_id":59510,"intl_designator":"2024-072A","name":"SUPERVIEW NEO-3 01","alt_names":[],"object_type":"PAYLOAD","status":"ACTIVE","operator":null,"country":"PRC","launch_date":"2024-04-15","launch_site_code":"JSC","launch_vehicle":null,"mission":null,"orbit_class":"UNKNOWN","rcs_meters":null,"size_class":null,"mass_kg":null,"dimensions":null,"purposes":[],"wikipedia_slug":null,"has_3d_model":false,"image_url":null,"decayed_at":null,"tle_current":{"epoch":"2026-09-22T22:27:25.714656Z","epoch_age_seconds":55512,"freshness":"FRESH","line1":"1 59510U 24072A   26265.93571429  .00005271  00000+0  23328-3 0  9991","line2":"2 59510  97.4081 344.6063 0002743 111.6745 248.4784 15.22088387135570","mean_motion":15.22088387,"eccentricity":0.0002743,"inclination_deg":97.4081,"raan_deg":344.6063,"arg_perigee_deg":111.6745,"mean_anomaly_deg":248.4784,"bstar":0.00023328,"rev_number":13557,"period_min":94.60685807072,"perigee_km":497.65583419183,"apogee_km":501.4289291006,"semimajor_km":6877.6793816462,"source":"CELESTRAK","updated_at":"2026-09-23T09:00:19.418198Z"}}}